This demonstration page uses our WeatherBlox Daily Observations layout. Learn more.

38.89511, -77.03637

Hourly Observations for January 12, 2015

Temp ( °F °C ) Dew Point ( °F °C ) Humidity (%) Winds ( mph kmh ) Pressure ( in mb ) Visibility ( mi km ) Precip ( " mm )
12:52 am 00:52 Cloudy with Light Rain 37 3 25 -4 60 60 Calm 30.5 1033 10 16.09344 0.001 0.001
1:52 am 01:52 Cloudy with Light Rain 36 2 27 -3 70 70 S 5 7 30.5 1033 10 16.09344 0.02 0.508
2:10 am 02:10 Cloudy with Light Rain 36 2 27 -3 70 70 S 5 7 30.5 1033 10 16.09344 0 0
2:44 am 02:44 Cloudy with Light Rain 36 2 27 -3 70 70 Calm 30.48 1032 5 8.04672 0 0
2:52 am 02:52 Cloudy with Light Rain 36 2 27 -3 70 70 Calm 30.48 1032 5 8.04672 0.03 0.762
3:01 am 03:01 Cloudy with Light Rain 36 2 27 -3 70 70 S 3 6 30.48 1032 5 8.04672 0.01 0.254
3:10 am 03:10 Cloudy with Light Rain 36 2 28 -2 75 75 SSE 3 6 30.45 1031 5 8.04672 0 0
3:52 am 03:52 Cloudy with Light Rain 36 2 30 -1 81 81 S 5 7 30.45 1031 7 11.265408 0.01 0.254
4:06 am 04:06 Cloudy with Light Rain 36 2 30 -1 81 81 Calm 30.42 1030 10 16.09344 0 0
4:52 am 04:52 Cloudy 37 3 30 -1 75 75 Calm 30.42 1030 10 16.09344 0.001 0.001
5:52 am 05:52 Cloudy with Light Rain 37 3 32 0 81 81 Calm 30.39 1029 6 9.656064 0.001 0.001
6:52 am 06:52 Cloudy with Rain 36 2 32 0 87 87 S 5 7 30.39 1029 4 6.437376 0.03 0.762
7:22 am 07:22 Cloudy with Light Rain 36 2 32 0 87 87 S 6 9 30.39 1029 4 6.437376 0 0
7:52 am 07:52 Cloudy with Light Rain 36 2 32 0 87 87 SSE 8 13 30.36 1028 3 4.828032 0.12 3.048
7:59 am 07:59 Cloudy with Light Rain 36 2 32 0 87 87 S 7 11 30.36 1028 2.5 4.02336 0.01 0.254
8:05 am 08:05 Cloudy with Light Rain 36 2 32 0 87 87 S 5 7 30.36 1028 2.5 4.02336 0.01 0.254
8:17 am 08:17 Cloudy with Light Rain 36 2 32 0 87 87 S 6 9 30.33 1027 2 3.218688 0.03 0.762
8:25 am 08:25 Cloudy with Light Rain 36 2 32 0 87 87 S 6 9 30.33 1027 2.5 4.02336 0.03 0.762
8:52 am 08:52 Cloudy with Light Rain 36 2 32 0 87 87 S 5 7 30.33 1027 2.5 4.02336 0.04 1.016
9:52 am 09:52 Cloudy with Light Rain 36 2 32 0 87 87 S 6 9 30.33 1027 2.5 4.02336 0.04 1.016
9:59 am 09:59 Cloudy with Light Rain 36 2 32 0 87 87 S 6 9 30.3 1026 3 4.828032 0.01 0.254
10:13 am 10:13 Cloudy with Light Rain 37 3 32 0 81 81 S 6 9 30.3 1026 2 3.218688 0.02 0.508
10:52 am 10:52 Cloudy with Light Rain 37 3 34 1 87 87 S 5 7 30.27 1025 3 4.828032 0.04 1.016
11:03 am 11:03 Cloudy with Rain 37 3 34 1 87 87 S 6 9 30.27 1025 1.5 2.414016 0 0
11:15 am 11:15 Cloudy with Light Rain 37 3 34 1 87 87 S 6 9 30.27 1025 2 3.218688 0.04 1.016
11:21 am 11:21 Cloudy with Light Rain 37 3 34 1 87 87 S 6 9 30.27 1025 1.75 2.816352 0.05 1.27
11:45 am 11:45 Cloudy with Light Rain 37 3 34 1 87 87 S 6 9 30.24 1024 2 3.218688 0.06 1.524
11:52 am 11:52 Cloudy with Light Rain 37 3 34 1 87 87 S 6 9 30.24 1024 1.5 2.414016 0.07 1.778
11:58 am 11:58 Cloudy with Light Rain 37 3 34 1 87 87 S 6 9 30.24 1024 1.5 2.414016 0 0
12:52 pm 12:52 Cloudy with Light Rain 37 3 34 1 87 87 SSW 5 7 30.18 1022 2 3.218688 0.05 1.27
1:52 pm 13:52 Cloudy with Light Rain 37 3 34 1 87 87 SSE 3 6 30.15 1021 2 3.218688 0.07 1.778
2:36 pm 14:36 Cloudy with Light Rain 39 4 36 2 87 87 Calm 30.15 1021 2.5 4.02336 0 0
2:41 pm 14:41 Cloudy with Light Rain 39 4 36 2 87 87 Calm 30.15 1021 3 4.828032 0.06 1.524
2:52 pm 14:52 Cloudy with Light Rain 39 4 36 2 87 87 Calm 30.15 1021 2.5 4.02336 0.08 2.032
2:59 pm 14:59 Cloudy with Light Rain 39 4 34 1 81 81 Calm 30.15 1021 1.5 2.414016 0.001 0.001
3:17 pm 15:17 Cloudy with Light Rain 39 4 36 2 87 87 Calm 30.15 1021 0.75 1.207008 0.04 1.016
3:26 pm 15:26 Cloudy with Light Rain 39 4 36 2 87 87 Calm 30.15 1021 1 1.609344 0 0
3:34 pm 15:34 Cloudy with Light Rain 39 4 36 2 87 87 Calm 30.15 1021 2 3.218688 0 0
3:52 pm 15:52 Cloudy with Light Rain 39 4 36 2 87 87 Calm 30.15 1021 2.5 4.02336 0.07 1.778
3:57 pm 15:57 Cloudy with Light Rain 39 4 36 2 87 87 Calm 30.15 1021 2 3.218688 0.001 0.001
4:08 pm 16:08 Cloudy with Light Rain 39 4 36 2 87 87 NNE 3 6 30.15 1021 2 3.218688 0 0
4:16 pm 16:16 Cloudy with Light Rain 39 4 36 2 87 87 NNE 5 7 30.15 1021 2.5 4.02336 0 0
4:18 pm 16:18 Cloudy with Light Rain 39 4 36 2 87 87 NNE 5 7 30.15 1021 2.5 4.02336 0 0
4:20 pm 16:20 Cloudy with Light Rain 39 4 36 2 87 87 NNE 5 7 30.15 1021 2.5 4.02336 0 0
4:26 pm 16:26 Cloudy with Light Rain 39 4 36 2 87 87 N 5 7 30.12 1020 0.75 1.207008 0 0
4:38 pm 16:38 Cloudy with Light Rain 39 4 36 2 87 87 N 6 9 30.12 1020 3 4.828032 0 0
4:52 pm 16:52 Cloudy with Light Rain 39 4 36 2 87 87 N 6 9 30.15 1021 3 4.828032 0.01 0.254
4:58 pm 16:58 Cloudy with Light Rain 39 4 36 2 87 87 NNE 5 7 30.15 1021 3 4.828032 0 0
5:13 pm 17:13 Cloudy with Light Rain 39 4 36 2 87 87 N 5 7 30.15 1021 6 9.656064 0.01 0.254
5:16 pm 17:16 Cloudy with Light Rain 39 4 36 2 87 87 N 3 6 30.15 1021 7 11.265408 0 0
5:19 pm 17:19 Cloudy with Light Rain 41 5 37 3 87 87 Calm 30.15 1021 7 11.265408 0.01 0.254
5:52 pm 17:52 Cloudy with Light Rain 39 4 36 2 87 87 NNE 3 6 30.15 1021 6 9.656064 0.03 0.762
6:52 pm 18:52 Cloudy 41 5 36 2 81 81 NNW 7 11 30.15 1021 9 14.484096 0.001 0.001
7:52 pm 19:52 Cloudy with Light Rain 43 6 37 3 81 81 NNW 5 7 30.18 1022 10 16.09344 0.001 0.001
8:52 pm 20:52 Cloudy with Light Rain 43 6 36 2 76 76 N 6 9 30.18 1022 6 9.656064 0.02 0.508
9:52 pm 21:52 Cloudy with Light Rain 41 5 36 2 81 81 NNW 7 11 30.21 1023 6 9.656064 0.01 0.254
10:52 pm 22:52 Cloudy 43 6 37 3 81 81 NW 7 11 30.24 1024 9 14.484096 0.01 0.254
11:52 pm 23:52 Cloudy with Light Drizzle 43 6 36 2 76 76 NNW 8 13 30.27 1025 9 14.484096 0.001 0.001

Powered by AerisWeather